Flag for Israel Weather past 2 weeks in Modi'in-Maccabim-Re'ut, Israel

77 °F


Feels Like: 79 °F
Forecast: 60 / 78 °F
Wind: 13 mph from Northwest

Location: Ben Gurion International Airport

Current Time: Nov 27, 2015 at 2:29:57 PM

Latest Report: Nov 27, 2015 at 1:50 PM

Visibility: 10 mi

Pressure: 30.01 "Hg

Humidity: 51%

Dew point: 57 °F

Location of Modi'in-Maccabim-Re'utLocation

Historic Weather in Modi'in-Maccabim-Re'ut — Graph


Modi'in-Maccabim-Re'ut temperature yesterday

Maximum temperature yesterday: 81 °F (at 11:20 AM)
Minimum temperature yesterday: 64 °F (at 4:50 AM)
Average temperature yesterday: 71 °F

Past Weeks' High & Low Weather Summary

High90 °F (Nov 15, 1:50 PM)94% (Nov 16, 11:20 AM)30.18 "Hg (Nov 16, 11:20 AM)
Low54 °F (Nov 14, 5:20 AM)20% (Nov 14, 10:20 AM)29.74 "Hg (Nov 16, 11:50 AM)
Average68 °F56%30.00 "Hg
* Reported Nov 12 1:20 PM — Nov 27 1:20 PM, Modi'in-Maccabim-Re'ut, Weather by CustomWeather, © 2015

Note: Actual official high and low records may vary slightly from our data, if they occured in-between our weather recording intervals... More about our weather records


Modi'in-Maccabim-Re'ut weather history for previous 24 hours

Time TempWeatherWind HumidityBarometerVisibility
1:20 PM
Fri, Nov 27
79 °FSunny.8 mph45%30.01 "Hg10 mi
12:50 PM81 °FSunny.3 mph37%29.98 "Hg10 mi
12:20 PM79 °FPassing clouds.5 mph39%30.01 "HgN/A
11:50 AM79 °FPassing clouds.6 mph39%30.01 "HgN/A
11:20 AM77 °FPassing clouds.5 mph42%30.01 "HgN/A
10:50 AM77 °FPassing clouds.5 mph42%30.04 "HgN/A
10:20 AM75 °FSunny.3 mph44%30.04 "Hg10 mi
9:50 AM75 °FSunny.3 mph41%30.04 "Hg10 mi
8:50 AM70 °FSunny.1 mph50%30.04 "Hg10 mi
8:20 AM66 °FSunny.1 mph56%30.04 "Hg10 mi
7:50 AM63 °FSunny.3 mph59%30.04 "Hg10 mi
7:20 AM63 °FSunny.5 mph59%30.04 "Hg10 mi
6:50 AM63 °FSunny.2 mph59%30.01 "Hg10 mi
5:50 AM59 °FClear.2 mph68%30.01 "Hg10 mi
5:20 AM57 °FClear.3 mph72%30.01 "Hg10 mi
4:50 AM59 °FClear.6 mph72%29.98 "Hg10 mi
4:20 AM63 °FClear.3 mph59%29.98 "Hg10 mi
3:50 AM63 °FClear.3 mph59%29.98 "Hg10 mi
3:20 AM61 °FClear.3 mph68%29.98 "Hg10 mi
2:50 AM61 °FClear.3 mph68%29.98 "Hg10 mi
2:20 AM64 °FClear.3 mph60%29.98 "Hg10 mi
1:50 AM63 °FClear.2 mph73%29.98 "Hg10 mi
1:20 AM63 °FClear.2 mph68%29.98 "Hg10 mi
12:50 AM64 °FClear.2 mph64%29.98 "Hg10 mi
12:20 AM64 °FClear.3 mph64%29.98 "Hg10 mi
11:50 PM
Thu, Nov 26
64 °FClear.1 mph68%29.98 "Hg10 mi
11:20 PM64 °FClear.1 mph60%29.95 "Hg10 mi
10:50 PM64 °FClear.3 mph64%29.95 "Hg10 mi
10:20 PM64 °FClear.2 mph68%29.95 "Hg10 mi
9:50 PM66 °FClear.1 mph56%29.95 "Hg10 mi
9:20 PM66 °FClear.1 mph56%29.95 "Hg10 mi
8:50 PM66 °FClear.1 mph56%29.95 "Hg10 mi
8:20 PM68 °FClear.5 mph53%29.95 "Hg10 mi
7:50 PM68 °FClear.5 mph53%29.95 "Hg10 mi
7:20 PM68 °FClear.5 mph53%29.95 "Hg10 mi
6:50 PM68 °FClear.5 mph56%29.95 "Hg10 mi
6:20 PM70 °FClear.6 mph50%29.95 "Hg10 mi
5:50 PM72 °FClear.6 mph47%29.92 "Hg10 mi
5:20 PM72 °FClear.6 mph50%29.92 "Hg10 mi
4:50 PM73 °FClear.7 mph44%29.92 "Hg10 mi
4:20 PM75 °FSunny.3 mph44%29.92 "Hg10 mi
3:50 PM75 °FSunny.7 mph41%29.92 "Hg10 mi
3:20 PM77 °FSunny.8 mph39%29.89 "Hg10 mi
2:50 PM77 °FSunny.9 mph36%29.89 "Hg10 mi
2:20 PM77 °FSunny.9 mph34%29.89 "Hg10 mi
Weather by CustomWeather, © 2015

See weather overviewHow to use our weather pages